[[[{"header":{"parameterUnit":"kt","parameterCategory":2,"dx":1,"dy":1,"la1":30.253999710083008,"la2":30.299108505249023,"lo1":-89.0895004272461,"lo2":-89.04439544677734,"nx":28,"ny":28,"refTime":"2022-09-20T21:00:00:Z","depth":"0","parameterNumber":2,"parameterNumberName":"U-component_of_CURRENTS"},"data":[-0.1069,-0.092,-0.0807,-0.0629,-0.0567,-0.0503,-0.0491,-0.0432,-0.0424,-0.0466,-0.0541,-0.0652,-0.0894,-0.0988,-0.0992,-0.0915,-0.0778,-0.061,-0.0566,-0.0738,-0.0757,-0.0774,-0.0723,-0.0579,-0.0577,-0.0469,-0.0466,-0.0463,-0.1081,-0.096,-0.0833,-0.0686,-0.0613,-0.0582,-0.0541,-0.0508,-0.0537,-0.0568,-0.0654,-0.0867,-0.1038,-0.1179,-0.1343,-0.1183,-0.1174,-0.1009,-0.0981,-0.1006,-0.1301,-0.1273,-0.1244,-0.1244,-0.1244,-0.1244,-0.1244,-0.1244,-0.1067,-0.1,-0.0906,-0.0775,-0.0698,-0.0633,-0.0592,-0.0584,-0.059,-0.0643,-0.0789,-0.0868,-0.1118,-0.1273,-0.1296,-0.1328,-0.1272,-0.133,-0.114,-0.1132,-0.1098,-0.132,-0.1399,-0.1399,-0.1399,-0.1399,-0.1399,0,-0.106,-0.101,-0.0975,-0.0861,-0.0782,-0.0708,-0.0663,-0.0662,-0.0673,-0.0706,-0.0815,-0.0896,-0.1077,-0.1232,-0.1309,-0.1358,-0.1303,-0.1406,-0.1327,-0.117,-0.1066,-0.1098,-0.1397,-0.1465,-0.1465,-0.1465,-0.1466,-0.1466,-0.0976,-0.1008,-0.094,-0.0886,-0.0878,-0.0811,-0.0761,-0.0742,-0.0723,-0.0793,-0.0807,-0.0921,-0.0998,-0.1188,-0.1296,-0.1382,-0.1301,-0.1411,-0.1431,-0.1285,-0.1134,-0.1101,-0.1101,-0.1468,-0.1468,-0.1467,-0.1467,0,-0.0894,-0.0942,-0.096,-0.095,-0.0929,-0.0883,-0.0829,-0.078,-0.0785,-0.0774,-0.0779,-0.0873,-0.1006,-0.1075,-0.1266,-0.1305,-0.1349,-0.1414,-0.1352,-0.1388,-0.1318,-0.1148,-0.1121,-0.112,-0.1444,-0.1443,-0.1442,0,-0.0829,-0.0879,-0.0899,-0.0944,-0.09,-0.0937,-0.0877,-0.0859,-0.084,-0.0817,-0.0831,-0.0855,-0.0993,-0.1083,-0.1163,-0.1278,-0.1336,-0.1345,-0.1391,-0.1396,-0.139,-0.1371,-0.1209,-0.1462,-0.1462,-0.1462,-0.1461,0,-0.0749,-0.0853,-0.0915,-0.0946,-0.0994,-0.0972,-0.0962,-0.0938,-0.0909,-0.0883,-0.0882,-0.09,-0.0947,-0.1051,-0.1155,-0.1169,-0.1324,-0.1384,-0.1375,-0.137,-0.1434,-0.1432,-0.1381,-0.1461,-0.1461,-0.1461,-0.146,0,-0.0742,-0.0807,-0.0917,-0.0941,-0.0973,-0.099,-0.097,-0.0974,-0.0945,-0.0931,-0.0903,-0.0915,-0.0936,-0.0967,-0.1104,-0.1086,-0.1157,-0.1231,-0.1238,-0.1234,-0.1286,-0.1343,-0.1331,-0.1252,-0.1301,-0.1299,-0.1298,0,-0.0647,-0.0794,-0.0847,-0.0924,-0.1004,-0.1039,-0.1029,-0.1044,-0.1038,-0.1027,-0.0994,-0.0977,-0.0974,-0.0966,-0.1014,-0.1128,-0.1148,-0.1098,-0.1309,-0.1312,-0.1284,-0.1263,-0.1273,-0.1313,-0.1284,-0.1285,-0.1286,0,-0.0596,-0.0747,-0.0772,-0.0808,-0.0949,-0.1019,-0.1023,-0.108,-0.1058,-0.1081,-0.1068,-0.101,-0.102,-0.1007,-0.1014,-0.1069,-0.1121,-0.114,-0.1147,-0.1161,-0.1292,-0.1247,-0.1252,-0.1225,-0.1227,-0.1228,-0.1275,0,-0.0603,-0.0675,-0.0725,-0.0855,-0.0933,-0.1026,-0.1116,-0.1129,-0.1148,-0.1192,-0.1142,-0.1143,-0.1135,-0.1117,-0.1119,-0.112,-0.1142,-0.1209,-0.1253,-0.1228,-0.1245,-0.1254,-0.1175,-0.1176,-0.1178,-0.1179,0,0,-0.0531,-0.0631,-0.0731,-0.083,-0.0915,-0.1035,-0.1124,-0.1167,-0.1294,-0.1283,-0.1296,-0.127,-0.1259,-0.1205,-0.1184,-0.1185,-0.1236,-0.1171,-0.1223,-0.1227,-0.1231,-0.1248,-0.1255,-0.1181,-0.1181,-0.1182,-0.1182,0,-0.056,-0.0617,-0.0683,-0.0788,-0.0972,-0.1068,-0.1096,-0.1282,-0.1311,-0.1321,-0.1351,-0.1323,-0.1294,-0.1291,-0.1276,-0.1206,-0.1261,-0.1194,-0.1134,-0.1231,-0.1233,-0.1236,-0.1252,-0.1257,-0.1185,-0.1185,-0.1185,0,-0.0556,-0.0669,-0.0702,-0.0884,-0.101,-0.1115,-0.1221,-0.1348,-0.1387,-0.1425,-0.1432,-0.1426,-0.1414,-0.1365,-0.1339,-0.1355,-0.1303,-0.1284,-0.1277,-0.1269,-0.1373,-0.1374,-0.1375,-0.1366,-0.1366,-0.1366,0,0,-0.0585,-0.0637,-0.0846,-0.0913,-0.0988,-0.117,-0.126,-0.1349,-0.1433,-0.1457,-0.1472,-0.1461,-0.1433,-0.1409,-0.1394,-0.1336,-0.1386,-0.1303,-0.1295,-0.1288,-0.1276,-0.1376,-0.1376,-0.1368,-0.1368,-0.1368,0,0,-0.0618,-0.0813,-0.0857,-0.095,-0.1099,-0.1323,-0.1387,-0.1468,-0.1504,-0.1486,-0.1513,-0.1507,-0.1451,-0.1452,-0.1472,-0.1393,-0.1432,-0.1427,-0.1379,-0.1369,-0.1361,-0.1352,-0.1498,0,0,0,0,0,-0.0754,-0.0786,-0.0823,-0.0867,-0.1111,-0.1291,-0.1328,-0.1477,-0.1506,-0.1532,-0.1533,-0.1537,-0.1474,-0.1492,-0.1482,-0.1434,-0.1386,-0.1382,-0.1379,-0.1306,-0.1295,-0.1285,0,0,0,0,0,0,-0.0772,-0.0817,-0.0827,-0.1042,-0.1103,-0.1289,-0.136,-0.14,-0.1506,-0.1517,-0.1541,-0.1538,-0.1548,-0.1496,-0.1488,-0.1441,-0.1501,-0.1384,-0.1382,-0.1379,-0.1302,-0.1293,-0.1285,0,0,0,0,0,-0.0788,-0.0825,-0.1162,-0.1045,-0.1097,-0.1316,-0.1358,-0.1392,-0.1456,-0.1514,-0.1519,-0.1567,-0.1549,-0.154,-0.1491,-0.1445,-0.1506,-0.1503,-0.1383,-0.138,-0.1379,-0.1298,0,0,0,0,0,0,-0.08,-0.0839,-0.1178,-0.1203,-0.1042,-0.1309,-0.1346,-0.1384,-0.1441,-0.146,-0.1535,-0.1542,-0.1548,-0.1542,-0.1535,-0.1446,-0.1511,-0.1508,-0.1506,-0.1381,-0.1379,-0.1378,0,0,0,0,0,0,-0.0823,-0.0856,-0.119,-0.1177,-0.1201,-0.1301,-0.1334,-0.1299,-0.143,-0.1451,-0.1467,-0.1536,-0.1489,-0.1543,-0.1538,-0.1485,-0.1515,-0.1512,-0.151,-0.1508,-0.138,-0.1378,0,0,0,0,0,0,-0.0842,-0.0871,-0.1169,-0.1188,-0.1209,-0.1488,-0.1262,-0.1447,-0.16,-0.1436,-0.1601,-0.1602,-0.1483,-0.1484,-0.1539,-0.1489,-0.1486,-0.1515,-0.1513,-0.1511,-0.151,0,0,0,0,0,0,0,-0.0857,-0.0606,-0.1051,-0.1197,-0.1216,-0.1441,-0.1446,-0.1451,-0.16,-0.16,-0.1601,-0.1602,-0.1532,-0.1529,-0.1525,-0.1492,0,0,-0.1515,-0.1513,0,0,0,0,0,0,0,0,-0.0599,-0.0604,-0.1052,-0.1058,-0.1065,-0.1442,-0.1446,-0.145,-0.16,-0.16,-0.1601,-0.1601,-0.1531,-0.1528,-0.1526,0,0,0,0,0,0,0,0,0,0,0,0,0,0,0,-0.1053,-0.1058,0,-0.1443,-0.1446,-0.1449,-0.16,-0.16,-0.1601,-0.1601,-0.153,-0.1528,-0.1526,0,0,0,0,0,0,0,0,0,0,0,0,0,0,0,0,0,0,0,0,0,0,0,0,0,0,0,0,0,0,0,0,0,0,0,0,0,0,0,0,0,0,0,0,0,0,0,0,0,0,0,0,0,0,0,0,0,0,0,0,0,0,0,0,0,0,0,0,0]}],[{"header":{"parameterUnit":"kt","parameterCategory":2,"dx":1,"dy":1,"la1":30.253999710083008,"la2":30.299108505249023,"lo1":-89.0895004272461,"lo2":-89.04439544677734,"nx":28,"ny":28,"refTime":"2022-09-20T21:00:00:Z","depth":"0","parameterNumber":3,"parameterNumberName":"V-component_of_CURRENTS"},"data":[-0.4273,-0.4218,-0.4175,-0.3938,-0.3811,-0.3569,-0.3447,-0.3309,-0.3271,-0.3239,-0.3334,-0.3463,-0.349,-0.3122,-0.2587,-0.2361,-0.1553,-0.1431,-0.0968,-0.1902,-0.1937,-0.197,-0.1899,-0.1615,-0.1613,0.0172,0.0187,0.0199,-0.4298,-0.4278,-0.4179,-0.4041,-0.3882,-0.3802,-0.3606,-0.3477,-0.3326,-0.3287,-0.32,-0.3385,-0.3374,-0.3337,-0.3282,-0.2898,-0.2494,-0.255,-0.2092,-0.1843,-0.3001,-0.2975,-0.2916,-0.2916,-0.2916,-0.2916,-0.2917,-0.2917,-0.4362,-0.4327,-0.4257,-0.4131,-0.4004,-0.3827,-0.3692,-0.3557,-0.3416,-0.3246,-0.322,-0.3166,-0.3327,-0.346,-0.3355,-0.3189,-0.294,-0.3122,-0.2875,-0.2546,-0.2194,-0.3396,-0.343,-0.3429,-0.3428,-0.3428,-0.3428,0,-0.4401,-0.4391,-0.4289,-0.4162,-0.4051,-0.387,-0.37,-0.3647,-0.3445,-0.3343,-0.3214,-0.316,-0.319,-0.327,-0.333,-0.3359,-0.2911,-0.333,-0.3045,-0.2879,-0.2485,-0.2181,-0.3383,-0.3421,-0.342,-0.342,-0.3419,-0.3419,-0.4501,-0.4412,-0.4237,-0.4169,-0.4052,-0.3894,-0.3766,-0.3606,-0.3519,-0.3322,-0.3278,-0.3184,-0.3134,-0.315,-0.3224,-0.3295,-0.2945,-0.3313,-0.3351,-0.3081,-0.2833,-0.2482,-0.2216,-0.3412,-0.3413,-0.3414,-0.3414,0,-0.454,-0.4429,-0.4251,-0.402,-0.3958,-0.3866,-0.3635,-0.3556,-0.3455,-0.3343,-0.3306,-0.3198,-0.3159,-0.315,-0.3168,-0.3199,-0.3,-0.3255,-0.3292,-0.3297,-0.3097,-0.2874,-0.2396,-0.2074,-0.3307,-0.3307,-0.3307,0,-0.4524,-0.4387,-0.4203,-0.4083,-0.3947,-0.3743,-0.3626,-0.3538,-0.3422,-0.3337,-0.3282,-0.3216,-0.3195,-0.3169,-0.3206,-0.3226,-0.3222,-0.3275,-0.3276,-0.3312,-0.3315,-0.309,-0.2867,-0.3281,-0.3281,-0.3281,-0.328,0,-0.457,-0.4299,-0.4163,-0.4043,-0.3757,-0.3686,-0.3568,-0.344,-0.3373,-0.3311,-0.3255,-0.3239,-0.3197,-0.3227,-0.3209,-0.3219,-0.3219,-0.3234,-0.3269,-0.3269,-0.3308,-0.3311,-0.3083,-0.328,-0.328,-0.328,-0.328,0,-0.4491,-0.4362,-0.4153,-0.3903,-0.3821,-0.3699,-0.3528,-0.3421,-0.334,-0.3295,-0.3268,-0.3228,-0.3211,-0.3217,-0.3224,-0.3214,-0.3242,-0.3243,-0.3244,-0.3238,-0.3232,-0.3265,-0.3316,-0.3053,-0.3252,-0.3251,-0.3251,0,-0.4546,-0.4352,-0.4219,-0.3997,-0.3832,-0.3673,-0.3563,-0.3446,-0.3375,-0.3295,-0.3293,-0.3224,-0.3227,-0.3204,-0.3221,-0.3199,-0.3229,-0.3217,-0.3232,-0.3233,-0.3201,-0.3242,-0.3286,-0.3309,-0.3247,-0.3248,-0.3248,0,-0.4581,-0.4329,-0.4297,-0.4178,-0.3911,-0.3785,-0.3676,-0.3509,-0.3466,-0.335,-0.3273,-0.3235,-0.3225,-0.321,-0.3198,-0.3207,-0.3223,-0.3206,-0.3206,-0.3189,-0.3242,-0.3237,-0.3239,-0.3221,-0.3222,-0.3222,-0.3245,0,-0.4455,-0.4354,-0.4307,-0.4108,-0.3965,-0.3826,-0.3642,-0.3563,-0.348,-0.3368,-0.3321,-0.3261,-0.3194,-0.3203,-0.3175,-0.3192,-0.3192,-0.3188,-0.3163,-0.32,-0.3209,-0.3211,-0.3182,-0.3181,-0.3181,-0.3181,0,0,-0.4489,-0.4395,-0.4283,-0.4157,-0.402,-0.3872,-0.3722,-0.3612,-0.3388,-0.3354,-0.3324,-0.3203,-0.3181,-0.3155,-0.3156,-0.3157,-0.3161,-0.3149,-0.3195,-0.3196,-0.3198,-0.3206,-0.3209,-0.3181,-0.3181,-0.3181,-0.3181,0,-0.4425,-0.4376,-0.4331,-0.4168,-0.3982,-0.3831,-0.3804,-0.3537,-0.3452,-0.3336,-0.3275,-0.3256,-0.3169,-0.3134,-0.3117,-0.3151,-0.3136,-0.3171,-0.3186,-0.3193,-0.3195,-0.3196,-0.3206,-0.3208,-0.318,-0.318,-0.318,0,-0.4362,-0.4279,-0.4249,-0.4068,-0.3913,-0.3747,-0.3639,-0.3501,-0.3394,-0.3313,-0.3183,-0.3153,-0.312,-0.309,-0.3093,-0.3088,-0.3115,-0.3107,-0.3109,-0.3101,-0.3107,-0.311,-0.3113,-0.3071,-0.307,-0.307,0,0,-0.4312,-0.4281,-0.4053,-0.4032,-0.3942,-0.3707,-0.3605,-0.3484,-0.3341,-0.3276,-0.3184,-0.3145,-0.3114,-0.3107,-0.3069,-0.3068,-0.3065,-0.3091,-0.3096,-0.31,-0.3094,-0.3102,-0.3105,-0.3067,-0.3067,-0.3067,0,0,-0.4256,-0.4068,-0.4022,-0.3977,-0.3797,-0.3515,-0.3452,-0.3334,-0.3208,-0.323,-0.3129,-0.3115,-0.3105,-0.3095,-0.3068,-0.3073,-0.3058,-0.3062,-0.3056,-0.3062,-0.3068,-0.3059,-0.3014,0,0,0,0,0,-0.4093,-0.4101,-0.4065,-0.4034,-0.3773,-0.3556,-0.3505,-0.3319,-0.3281,-0.3215,-0.3149,-0.3127,-0.3061,-0.3034,-0.3025,-0.3042,-0.3037,-0.3042,-0.3047,-0.304,-0.3047,-0.3053,0,0,0,0,0,0,-0.408,-0.4047,-0.4061,-0.3807,-0.3745,-0.3556,-0.346,-0.3404,-0.3282,-0.3262,-0.3132,-0.3123,-0.3059,-0.3036,-0.3029,-0.3046,-0.3016,-0.3039,-0.3044,-0.3048,-0.3042,-0.3048,-0.3053,0,0,0,0,0,-0.4068,-0.4041,-0.3703,-0.3799,-0.3746,-0.3498,-0.346,-0.3413,-0.3294,-0.3195,-0.3172,-0.3169,-0.3059,-0.3052,-0.3032,-0.305,-0.3021,-0.3018,-0.3042,-0.3046,-0.3049,-0.3045,0,0,0,0,0,0,-0.4059,-0.3942,-0.3684,-0.3656,-0.382,-0.35,-0.3455,-0.3422,-0.3233,-0.3205,-0.3235,-0.3224,-0.3059,-0.3054,-0.3048,-0.3054,-0.3025,-0.3022,-0.302,-0.3045,-0.3047,-0.305,0,0,0,0,0,0,-0.3956,-0.3921,-0.3669,-0.3707,-0.368,-0.3504,-0.3464,-0.3441,-0.3243,-0.3283,-0.3265,-0.3235,-0.3171,-0.3055,-0.305,-0.3008,-0.3028,-0.3025,-0.3023,-0.3022,-0.3047,-0.3049,0,0,0,0,0,0,-0.3935,-0.3904,-0.3711,-0.3691,-0.3667,-0.3323,-0.3485,-0.3283,-0.3106,-0.33,-0.3106,-0.3106,-0.3182,-0.3168,-0.3052,-0.3012,-0.3009,-0.3028,-0.3026,-0.3025,-0.3024,0,0,0,0,0,0,0,-0.3918,-0.4202,-0.3872,-0.3678,-0.3657,-0.34,-0.339,-0.338,-0.3106,-0.3106,-0.3106,-0.3106,-0.3042,-0.3039,-0.3036,-0.3015,0,0,-0.3028,-0.3027,0,0,0,0,0,0,0,0,-0.4208,-0.4204,-0.3871,-0.3866,-0.3862,-0.3398,-0.339,-0.3382,-0.3106,-0.3106,-0.3106,-0.3106,-0.3041,-0.3039,-0.3037,0,0,0,0,0,0,0,0,0,0,0,0,0,0,0,-0.387,-0.3867,0,-0.3397,-0.339,-0.3384,-0.3106,-0.3106,-0.3106,-0.3106,-0.3041,-0.3039,-0.3037,0,0,0,0,0,0,0,0,0,0,0,0,0,0,0,0,0,0,0,0,0,0,0,0,0,0,0,0,0,0,0,0,0,0,0,0,0,0,0,0,0,0,0,0,0,0,0,0,0,0,0,0,0,0,0,0,0,0,0,0,0,0,0,0,0,0,0,0,0]}]],[[{"header":{"parameterUnit":"kt","parameterCategory":2,"dx":1,"dy":1,"la1":30.253999710083008,"la2":30.299108505249023,"lo1":-89.0895004272461,"lo2":-89.04439544677734,"nx":28,"ny":28,"refTime":"2022-09-20T21:00:00:Z","depth":"2","parameterNumber":2,"parameterNumberName":"U-component_of_CURRENTS"},"data":[-0.2134,-0.2014,-0.1963,-0.1836,-0.1775,-0.1682,-0.1647,-0.1604,-0.1663,-0.1749,-0.1918,-0.2004,-0.1874,-0.155,-0.1073,-0.0802,-0.0849,-0.0662,-0.1181,-0.1167,-0.1208,-0.11,-0.1174,0,0,0,0,0,-0.2193,-0.2103,-0.2019,-0.1949,-0.1902,-0.1928,-0.1905,-0.1857,-0.182,-0.1918,-0.1905,-0.1891,-0.1683,-0.1546,-0.1238,-0.1046,-0.0965,-0.087,-0.0804,-0.0845,-0.0882,-0.0905,-0.0479,-0.0478,-0.0478,-0.0477,0,0,-0.2285,-0.2211,-0.2136,-0.2093,-0.2067,-0.2061,-0.2,-0.2019,-0.2005,-0.1983,-0.2024,-0.2056,-0.1871,-0.1805,-0.1514,-0.1316,-0.1476,-0.1345,-0.1358,-0.1377,-0.1423,-0.1403,-0.1137,-0.114,-0.1143,-0.1145,-0.1148,0,-0.2374,-0.2335,-0.2288,-0.2243,-0.2208,-0.2195,-0.2171,-0.2154,-0.2173,-0.2176,-0.2145,-0.2109,-0.1997,-0.1863,-0.1762,-0.1636,-0.1685,-0.1561,-0.1942,-0.1576,-0.1549,-0.1572,-0.161,-0.131,-0.1314,-0.1318,-0.132,-0.1322,-0.2465,-0.2434,-0.2402,-0.2375,-0.2362,-0.2322,-0.23,-0.232,-0.2297,-0.2287,-0.2264,-0.2225,-0.2176,-0.2054,-0.2046,-0.1939,-0.2011,-0.1657,-0.1757,-0.213,-0.215,-0.2172,-0.2193,-0.137,-0.1364,-0.1359,-0.1355,0,-0.2478,-0.2525,-0.2494,-0.2488,-0.2488,-0.2437,-0.2412,-0.2379,-0.2388,-0.2353,-0.2358,-0.239,-0.2326,-0.2318,-0.2238,-0.2251,-0.2169,-0.2117,-0.186,-0.1835,-0.2192,-0.2211,-0.1986,-0.1984,-0.1982,-0.1981,-0.1979,0,-0.2564,-0.2551,-0.2608,-0.2581,-0.2527,-0.2557,-0.2479,-0.2473,-0.2466,-0.2434,-0.2495,-0.248,-0.2529,-0.2474,-0.245,-0.2355,-0.2337,-0.2347,-0.2344,-0.2149,-0.2134,-0.2562,-0.2588,-0.2359,-0.2361,-0.2363,-0.2365,0,-0.2609,-0.2666,-0.2646,-0.2647,-0.2667,-0.2615,-0.2604,-0.2581,-0.2557,-0.2556,-0.256,-0.2557,-0.2573,-0.2531,-0.2528,-0.259,-0.2417,-0.2505,-0.2416,-0.2413,-0.2233,-0.2222,-0.2367,-0.2367,-0.2368,-0.2369,-0.2369,0,-0.2689,-0.2732,-0.2733,-0.2727,-0.2735,-0.2715,-0.2654,-0.2643,-0.2627,-0.2635,-0.264,-0.2705,-0.267,-0.2745,-0.2661,-0.2736,-0.2682,-0.2673,-0.2665,-0.2741,-0.2808,-0.2375,-0.2113,-0.2577,-0.2579,-0.2582,-0.2584,0,-0.2668,-0.2746,-0.2804,-0.2786,-0.2816,-0.2839,-0.2794,-0.2801,-0.2807,-0.2796,-0.281,-0.2821,-0.2877,-0.2901,-0.2859,-0.2894,-0.2787,-0.2896,-0.2845,-0.2841,-0.2848,-0.2659,-0.2412,-0.2168,-0.2617,-0.2614,-0.2611,0,-0.2691,-0.2819,-0.2816,-0.2824,-0.2908,-0.2957,-0.2906,-0.2933,-0.2913,-0.2939,-0.2915,-0.2899,-0.2962,-0.2981,-0.3036,-0.2996,-0.2837,-0.3062,-0.3065,-0.2945,-0.2699,-0.2702,-0.268,-0.2897,-0.2894,-0.2892,-0.2637,0,-0.2736,-0.2785,-0.2811,-0.2935,-0.2961,-0.3003,-0.3097,-0.3079,-0.3103,-0.3166,-0.3119,-0.3165,-0.3194,-0.3173,-0.3224,-0.3138,-0.3148,-0.3226,-0.3295,-0.3181,-0.3082,-0.3061,-0.3369,-0.3373,-0.3376,-0.3379,0,0,-0.2699,-0.2835,-0.2966,-0.3029,-0.3063,-0.3193,-0.3225,-0.3261,-0.3379,-0.3365,-0.3388,-0.3415,-0.3425,-0.3383,-0.3349,-0.3361,-0.3341,-0.3383,-0.3246,-0.3231,-0.3217,-0.3117,-0.3093,-0.3384,-0.3386,-0.3387,-0.3388,0,-0.2797,-0.2885,-0.2951,-0.3022,-0.3167,-0.3264,-0.3266,-0.3443,-0.3449,-0.3448,-0.3516,-0.349,-0.35,-0.3515,-0.3524,-0.3409,-0.3442,-0.3411,-0.3311,-0.3273,-0.3254,-0.3237,-0.3134,-0.311,-0.3395,-0.3395,-0.3395,0,-0.2839,-0.2991,-0.304,-0.3233,-0.3329,-0.3392,-0.3515,-0.3588,-0.3599,-0.37,-0.3656,-0.3686,-0.3727,-0.3674,-0.3645,-0.3685,-0.3533,-0.3606,-0.3591,-0.361,-0.3577,-0.3554,-0.3534,-0.3793,-0.3794,-0.3794,0,0,-0.29,-0.2989,-0.3214,-0.3281,-0.3331,-0.3495,-0.3542,-0.3624,-0.3707,-0.371,-0.3738,-0.3757,-0.3754,-0.3732,-0.3746,-0.3691,-0.3701,-0.3647,-0.3628,-0.3612,-0.3621,-0.3585,-0.3564,-0.3796,-0.3797,-0.3797,0,0,-0.2947,-0.3218,-0.327,-0.3379,-0.3487,-0.371,-0.3699,-0.3775,-0.3781,-0.3765,-0.3832,-0.3832,-0.376,-0.3802,-0.3828,-0.3749,-0.3837,-0.3832,-0.3695,-0.3672,-0.3654,-0.3662,-0.3903,0,0,0,0,0,-0.3169,-0.3199,-0.3244,-0.3291,-0.3556,-0.3697,-0.3721,-0.3813,-0.384,-0.3807,-0.3831,-0.3865,-0.3833,-0.3858,-0.386,-0.3782,-0.3827,-0.3822,-0.3817,-0.363,-0.3606,-0.3585,0,0,0,0,0,0,-0.319,-0.3252,-0.3245,-0.3482,-0.3543,-0.3699,-0.3788,-0.3812,-0.3842,-0.3844,-0.3868,-0.3869,-0.3916,-0.386,-0.3861,-0.3786,-0.3903,-0.3825,-0.382,-0.3816,-0.3622,-0.3602,-0.3585,0,0,0,0,0,-0.3207,-0.3257,-0.3662,-0.3479,-0.3532,-0.3678,-0.3784,-0.3805,-0.3801,-0.3893,-0.3896,-0.386,-0.3917,-0.3916,-0.3861,-0.3783,-0.3903,-0.3903,-0.3822,-0.3818,-0.3815,-0.3612,0,0,0,0,0,0,-0.322,-0.3249,-0.3673,-0.3691,-0.3461,-0.3665,-0.3703,-0.3799,-0.3844,-0.3856,-0.3891,-0.3892,-0.3918,-0.3917,-0.3916,-0.3778,-0.3903,-0.3903,-0.3903,-0.3819,-0.3816,-0.3814,0,0,0,0,0,0,-0.3224,-0.3263,-0.3681,-0.3653,-0.3668,-0.3652,-0.3686,-0.3692,-0.3837,-0.3833,-0.3841,-0.389,-0.3873,-0.3918,-0.3917,-0.3926,-0.3903,-0.3903,-0.3903,-0.3903,-0.3817,-0.3815,0,0,0,0,0,0,-0.3241,-0.3275,-0.3648,-0.3659,-0.3672,-0.3869,-0.3649,-0.3876,-0.3933,-0.3824,-0.393,-0.3928,-0.3871,-0.3873,-0.3918,-0.3928,-0.3927,-0.3903,-0.3903,-0.3903,-0.3903,0,0,0,0,0,0,0,-0.3255,-0.3016,-0.3581,-0.3664,-0.3675,-0.3859,-0.3863,-0.3866,-0.3933,-0.3931,-0.393,-0.3929,-0.3902,-0.3902,-0.3902,-0.3929,0,0,-0.3903,-0.3903,0,0,0,0,0,0,0,0,-0.3003,-0.3013,-0.3582,-0.3586,-0.3591,-0.386,-0.3863,-0.3865,-0.3932,-0.3931,-0.393,-0.3929,-0.3902,-0.3902,-0.3902,0,0,0,0,0,0,0,0,0,0,0,0,0,0,0,-0.3582,-0.3586,0,-0.386,-0.3863,-0.3865,-0.3932,-0.3931,-0.393,-0.393,-0.3902,-0.3902,-0.3902,0,0,0,0,0,0,0,0,0,0,0,0,0,0,0,0,0,0,0,0,0,0,0,0,0,0,0,0,0,0,0,0,0,0,0,0,0,0,0,0,0,0,0,0,0,0,0,0,0,0,0,0,0,0,0,0,0,0,0,0,0,0,0,0,0,0,0,0,0]}],[{"header":{"parameterUnit":"kt","parameterCategory":2,"dx":1,"dy":1,"la1":30.253999710083008,"la2":30.299108505249023,"lo1":-89.0895004272461,"lo2":-89.04439544677734,"nx":28,"ny":28,"refTime":"2022-09-20T21:00:00:Z","depth":"2","parameterNumber":3,"parameterNumberName":"V-component_of_CURRENTS"},"data":[0.0246,0.0218,0.0188,0.0173,0.0077,-0.0006,-0.0026,-0.0094,-0.0094,-0.0026,0.0344,0.0417,0.1264,0.1664,0.1829,0.2133,0.1888,0.1971,0.1474,0.2013,0.198,0.234,0.2499,0,0,0,0,0,0.0222,0.0157,0.0052,-0.0032,-0.0066,-0.0171,-0.0137,-0.0148,-0.0124,-0.0115,-0.0151,0.0614,0.1038,0.1353,0.178,0.1707,0.1787,0.1688,0.2173,0.2161,0.2145,0.2239,0.2299,0.2294,0.229,0.2285,0,0,0.0155,0.0102,-0.0031,-0.0134,-0.0227,-0.0212,-0.0241,-0.0212,-0.0136,-0.0046,0.0018,0.0279,0.0666,0.094,0.0935,0.1107,0.1145,0.1575,0.1587,0.159,0.1646,0.1502,0.1556,0.155,0.1544,0.1539,0.1535,0,0.0142,0.0062,-0.0043,-0.0189,-0.0275,-0.0322,-0.0333,-0.0274,-0.0162,-0.0078,0.0081,0.012,0.0264,0.0693,0.0718,0.0862,0.1301,0.1335,0.0853,0.2169,0.2041,0.2121,0.2106,0.2196,0.2193,0.2191,0.219,0.2188,0.0177,0.0072,-0.0117,-0.0185,-0.0272,-0.0367,-0.0368,-0.0331,-0.0217,-0.0033,0.0103,0.0195,0.0319,0.0471,0.0718,0.0808,0.0918,0.1289,0.1567,0.1012,0.1085,0.1099,0.111,0.2156,0.216,0.2163,0.2166,0,0.0237,0.009,-0.0064,-0.0192,-0.0233,-0.029,-0.0309,-0.0244,-0.0146,0.003,0.0068,0.0355,0.0477,0.0677,0.0976,0.1072,0.1215,0.1205,0.1568,0.1665,0.1157,0.1158,0.1026,0.1016,0.1008,0.1001,0.0995,0,0.0272,0.0155,-0.0028,-0.0101,-0.0185,-0.0194,-0.0195,-0.0105,0.0049,0.0179,0.0362,0.0518,0.083,0.0973,0.1141,0.1214,0.1371,0.1396,0.1455,0.193,0.1942,0.1915,0.1931,0.1793,0.1794,0.1795,0.1796,0,0.0402,0.0187,0.0027,-0.0003,-0.0041,-0.0073,-0.0049,0.0135,0.0224,0.0402,0.0497,0.0713,0.0845,0.1034,0.1234,0.1316,0.1459,0.1677,0.152,0.1499,0.2064,0.2087,0.1798,0.1798,0.1798,0.1799,0.1799,0,0.0456,0.0322,0.0121,0.0066,0.0041,0.0024,0.0152,0.0206,0.0439,0.0535,0.0691,0.0883,0.104,0.1151,0.139,0.1368,0.1472,0.1626,0.1631,0.1537,0.166,0.1976,0.1889,0.1644,0.1644,0.1644,0.1644,0,0.065,0.0395,0.0353,0.0239,0.0159,0.0275,0.033,0.0451,0.0591,0.0729,0.0946,0.1095,0.1184,0.1254,0.1367,0.1611,0.1622,0.1629,0.19,0.1904,0.1662,0.1474,0.199,0.188,0.1644,0.1644,0.1644,0,0.081,0.0596,0.0567,0.0505,0.0504,0.0523,0.0545,0.0659,0.0727,0.0836,0.0946,0.1149,0.1251,0.1396,0.1577,0.1687,0.1617,0.1775,0.1791,0.1657,0.1748,0.1501,0.1476,0.1795,0.1797,0.1799,0.1644,0,0.0916,0.0801,0.0714,0.0628,0.0649,0.06,0.0734,0.0769,0.0859,0.1008,0.1128,0.1362,0.1573,0.1621,0.1755,0.1829,0.1809,0.1998,0.2116,0.2027,0.1962,0.196,0.207,0.2076,0.2081,0.2085,0,0,0.1139,0.098,0.0987,0.0876,0.0896,0.1036,0.0972,0.1075,0.1232,0.1296,0.1314,0.1648,0.18,0.199,0.1951,0.2047,0.2066,0.2027,0.2068,0.2065,0.2063,0.1997,0.1989,0.2094,0.2096,0.2098,0.2099,0,0.1184,0.1137,0.0995,0.1016,0.1025,0.1146,0.1103,0.1231,0.1292,0.1369,0.1569,0.1675,0.1864,0.2051,0.2172,0.2105,0.2201,0.211,0.1956,0.2106,0.2095,0.2087,0.2018,0.2008,0.2112,0.2111,0.2111,0,0.1332,0.1307,0.1268,0.1257,0.1315,0.1318,0.1467,0.1454,0.1497,0.1743,0.1793,0.1931,0.2171,0.2241,0.2269,0.2338,0.234,0.2362,0.2341,0.2339,0.2503,0.249,0.2478,0.2626,0.2626,0.2627,0,0,0.1366,0.126,0.1363,0.1293,0.1286,0.145,0.149,0.1565,0.1692,0.1732,0.1875,0.2035,0.2178,0.2233,0.2365,0.2419,0.2509,0.2409,0.2385,0.2364,0.2349,0.2507,0.2494,0.2627,0.2627,0.2627,0,0,0.1439,0.1455,0.149,0.14,0.1476,0.168,0.165,0.1749,0.185,0.1833,0.2063,0.2104,0.2137,0.228,0.2269,0.238,0.2502,0.2507,0.2244,0.2217,0.2194,0.2138,0.2429,0,0,0,0,0,0.1551,0.1443,0.1471,0.1475,0.1584,0.1658,0.1689,0.1817,0.1861,0.1823,0.1981,0.2071,0.2339,0.2334,0.237,0.2306,0.2636,0.2635,0.2633,0.2309,0.2279,0.2253,0,0,0,0,0,0,0.1554,0.1551,0.1479,0.1658,0.1687,0.1663,0.1813,0.185,0.1864,0.1874,0.2051,0.2081,0.2241,0.2325,0.2356,0.229,0.242,0.2636,0.2634,0.2633,0.2299,0.2274,0.2252,0,0,0,0,0,0.1557,0.1555,0.1647,0.1668,0.1692,0.1856,0.1812,0.1843,0.1846,0.2075,0.2104,0.1919,0.224,0.2271,0.2344,0.2272,0.24,0.241,0.2635,0.2634,0.2633,0.2287,0,0,0,0,0,0,0.156,0.1639,0.1661,0.1681,0.1647,0.186,0.1878,0.1836,0.2047,0.2077,0.196,0.1966,0.2239,0.2264,0.2288,0.2255,0.2383,0.2394,0.2401,0.2634,0.2633,0.2633,0,0,0,0,0,0,0.1642,0.1653,0.1672,0.1637,0.1655,0.1862,0.1877,0.199,0.2046,0.1923,0.1934,0.196,0.2178,0.2259,0.2278,0.2455,0.2371,0.2381,0.2389,0.2393,0.2633,0.2633,0,0,0,0,0,0,0.1653,0.1663,0.1633,0.1647,0.1663,0.1907,0.1969,0.2057,0.2047,0.1911,0.2044,0.2043,0.2169,0.2193,0.2271,0.2439,0.2451,0.2371,0.2378,0.2383,0.2387,0,0,0,0,0,0,0,0.1662,0.1514,0.1529,0.1655,0.1669,0.1867,0.1873,0.188,0.2047,0.2046,0.2045,0.2044,0.2311,0.2323,0.2334,0.2427,0,0,0.237,0.2375,0,0,0,0,0,0,0,0,0.1518,0.1515,0.153,0.1534,0.1537,0.1868,0.1873,0.1878,0.2046,0.2046,0.2045,0.2044,0.2314,0.2323,0.2333,0,0,0,0,0,0,0,0,0,0,0,0,0,0,0,0.153,0.1533,0,0.1868,0.1873,0.1877,0.2046,0.2046,0.2045,0.2044,0.2317,0.2324,0.2332,0,0,0,0,0,0,0,0,0,0,0,0,0,0,0,0,0,0,0,0,0,0,0,0,0,0,0,0,0,0,0,0,0,0,0,0,0,0,0,0,0,0,0,0,0,0,0,0,0,0,0,0,0,0,0,0,0,0,0,0,0,0,0,0,0,0,0,0,0]}]],[[{"header":{"parameterUnit":"kt","parameterCategory":2,"dx":1,"dy":1,"la1":30.253999710083008,"la2":30.299108505249023,"lo1":-89.0895004272461,"lo2":-89.04439544677734,"nx":28,"ny":28,"refTime":"2022-09-20T21:00:00:Z","depth":"4","parameterNumber":2,"parameterNumberName":"U-component_of_CURRENTS"},"data":[-0.0923,-0.0979,-0.1043,-0.0952,-0.0907,-0.0887,-0.0903,-0.0952,-0.0933,-0.1009,-0.0941,-0.0985,-0.0879,-0.0989,-0.0803,-0.0793,-0.113,-0.0752,-0.0749,-0.1409,-0.1453,-0.1493,-0.1564,0,0,0,0,0,-0.0983,-0.1032,-0.1037,-0.1045,-0.1007,-0.1015,-0.1031,-0.112,-0.1226,-0.1071,-0.1338,-0.1053,-0.0959,-0.092,-0.0827,-0.0882,-0.115,-0.077,-0.1333,-0.1437,-0.1486,-0.1539,0,0,0,0,0,0,-0.1065,-0.1094,-0.1178,-0.1168,-0.1141,-0.1105,-0.1191,-0.1183,-0.1368,-0.1584,-0.1362,-0.1342,-0.1327,-0.1215,-0.1123,-0.1114,-0.1152,-0.1284,-0.1338,-0.1386,-0.1393,-0.1206,-0.0702,0,0,0,0,0,-0.113,-0.1206,-0.1253,-0.1265,-0.127,-0.1304,-0.1387,-0.1492,-0.1707,-0.1926,-0.1795,-0.183,-0.1516,-0.1481,-0.144,-0.1409,-0.1915,-0.1707,-0.1737,-0.1976,-0.1868,-0.1868,-0.1905,-0.1673,-0.1679,-0.1683,-0.1685,0,-0.1205,-0.1249,-0.1355,-0.1337,-0.1397,-0.1539,-0.1578,-0.1914,-0.1945,-0.2146,-0.2083,-0.2164,-0.2144,-0.1826,-0.1911,-0.1847,-0.1862,-0.1833,-0.2087,-0.1949,-0.1931,-0.1958,-0.1981,-0.1725,-0.1722,-0.1718,-0.1715,0,-0.1246,-0.1312,-0.1366,-0.15,-0.1532,-0.1613,-0.1862,-0.1922,-0.2233,-0.2291,-0.2461,-0.2611,-0.248,-0.2598,-0.257,-0.2487,-0.2383,-0.2245,-0.2588,-0.2576,-0.2048,-0.2055,-0.179,-0.1775,-0.1763,-0.1753,-0.1744,0,-0.1298,-0.1332,-0.1444,-0.1481,-0.1548,-0.1688,-0.1809,-0.1968,-0.2228,-0.2261,-0.259,-0.2596,-0.2884,-0.2863,-0.2888,-0.2643,-0.2833,-0.2554,-0.2505,-0.2985,-0.2988,-0.3005,-0.3011,-0.2978,-0.2981,-0.2983,-0.2985,0,-0.1322,-0.14,-0.1447,-0.1483,-0.1627,-0.1725,-0.1848,-0.204,-0.2216,-0.2447,-0.2573,-0.2716,-0.2837,-0.2922,-0.2946,-0.305,-0.2898,-0.3015,-0.2621,-0.2591,-0.302,-0.3022,-0.2987,-0.2988,-0.2988,-0.2989,-0.299,0,-0.1372,-0.1418,-0.1476,-0.1574,-0.1605,-0.1687,-0.1883,-0.2029,-0.2251,-0.2388,-0.2551,-0.2729,-0.2865,-0.2937,-0.2979,-0.306,-0.3039,-0.3048,-0.304,-0.274,-0.2706,-0.281,-0.2868,-0.2869,-0.287,-0.2871,-0.2872,0,-0.1383,-0.1445,-0.1493,-0.157,-0.1619,-0.177,-0.1919,-0.2081,-0.2231,-0.2388,-0.2548,-0.2758,-0.2825,-0.2958,-0.297,-0.3055,-0.3015,-0.3072,-0.3071,-0.3065,-0.266,-0.2638,-0.3178,-0.2885,-0.2884,-0.2882,-0.2882,0,-0.1391,-0.1487,-0.1498,-0.1543,-0.1675,-0.1715,-0.1907,-0.2064,-0.2164,-0.24,-0.2518,-0.2746,-0.2805,-0.2901,-0.2997,-0.3034,-0.3009,-0.3133,-0.3136,-0.2906,-0.3042,-0.2692,-0.2649,-0.317,-0.3172,-0.3173,-0.2891,0,-0.1427,-0.1479,-0.1498,-0.1609,-0.1664,-0.1715,-0.186,-0.2018,-0.2178,-0.2277,-0.2504,-0.2634,-0.2816,-0.2881,-0.2957,-0.3066,-0.3065,-0.3144,-0.3056,-0.3157,-0.302,-0.3012,-0.3112,-0.3112,-0.3113,-0.3114,0,0,-0.1429,-0.1471,-0.1548,-0.1592,-0.1632,-0.1752,-0.1791,-0.1929,-0.2123,-0.2212,-0.2289,-0.263,-0.2704,-0.285,-0.2933,-0.2999,-0.3024,-0.3002,-0.315,-0.3153,-0.3157,-0.3029,-0.3021,-0.3115,-0.3115,-0.3115,-0.3115,0,-0.1428,-0.1497,-0.1533,-0.1589,-0.1674,-0.1742,-0.1772,-0.1905,-0.2027,-0.2209,-0.2327,-0.2443,-0.2706,-0.2767,-0.2842,-0.3,-0.2981,-0.3124,-0.3109,-0.3153,-0.3156,-0.3159,-0.3033,-0.3026,-0.3117,-0.3117,-0.3117,0,-0.1448,-0.1498,-0.1526,-0.1606,-0.1674,-0.1733,-0.1792,-0.1866,-0.1967,-0.2062,-0.2279,-0.2396,-0.2549,-0.2706,-0.2791,-0.2763,-0.2909,-0.2929,-0.2933,-0.2915,-0.2958,-0.2964,-0.297,-0.287,-0.2868,-0.2866,0,0,-0.1461,-0.151,-0.1576,-0.161,-0.1641,-0.1748,-0.1798,-0.1867,-0.1989,-0.2067,-0.2196,-0.2358,-0.2495,-0.2566,-0.2696,-0.2813,-0.2783,-0.2887,-0.2899,-0.2907,-0.2894,-0.294,-0.2949,-0.2858,-0.2858,-0.2858,0,0,-0.1463,-0.1541,-0.1586,-0.1622,-0.1687,-0.1775,-0.1823,-0.19,-0.2062,-0.2103,-0.2207,-0.2242,-0.2419,-0.2484,-0.2378,-0.266,-0.2633,-0.2654,-0.2553,-0.2569,-0.2581,-0.2525,-0.2357,0,0,0,0,0,-0.1506,-0.1518,-0.1557,-0.157,-0.1685,-0.1743,-0.1766,-0.1874,-0.1944,-0.1994,-0.2149,-0.2142,-0.2483,-0.2389,-0.241,-0.246,-0.276,-0.2777,-0.2794,-0.2698,-0.2714,-0.2728,0,0,0,0,0,0,-0.1511,-0.1525,-0.1556,-0.163,-0.1657,-0.1744,-0.181,-0.1842,-0.1942,-0.1962,-0.212,-0.2144,-0.2196,-0.2378,-0.2397,-0.2444,-0.2351,-0.2767,-0.2782,-0.2795,-0.2703,-0.2717,-0.2728,0,0,0,0,0,-0.1515,-0.1527,-0.1681,-0.1634,-0.1657,-0.1785,-0.1813,-0.1841,-0.1958,-0.2031,-0.2063,-0.2039,-0.2192,-0.2217,-0.2389,-0.2435,-0.2337,-0.2344,-0.2776,-0.2788,-0.2799,-0.271,0,0,0,0,0,0,-0.1518,-0.1583,-0.1689,-0.17,-0.1647,-0.1787,-0.1813,-0.1838,-0.2027,-0.2054,-0.1945,-0.1956,-0.2189,-0.2209,-0.2228,-0.2431,-0.2327,-0.2334,-0.2338,-0.2785,-0.2794,-0.2803,0,0,0,0,0,0,-0.1576,-0.1592,-0.1695,-0.1705,-0.172,-0.1788,-0.1811,-0.1875,-0.2029,-0.1936,-0.1948,-0.1948,-0.2151,-0.2203,-0.2219,-0.2317,-0.2318,-0.2325,-0.233,-0.2333,-0.2793,-0.28,0,0,0,0,0,0,-0.1585,-0.16,-0.1705,-0.1716,-0.1729,-0.1878,-0.185,-0.1969,-0.202,-0.1927,-0.2027,-0.203,-0.2141,-0.2161,-0.2211,-0.2302,-0.2313,-0.2319,-0.2323,-0.2327,-0.2329,0,0,0,0,0,0,0,-0.1593,-0.1467,-0.1602,-0.1724,-0.1736,-0.1801,-0.1806,-0.1811,-0.2021,-0.2024,-0.2026,-0.2029,-0.2279,-0.2286,-0.2294,-0.229,0,0,-0.2318,-0.2321,0,0,0,0,0,0,0,0,-0.1464,-0.1467,-0.1602,-0.1603,-0.1605,-0.1802,-0.1806,-0.181,-0.2021,-0.2023,-0.2026,-0.2028,-0.2281,-0.2287,-0.2293,0,0,0,0,0,0,0,0,0,0,0,0,0,0,0,-0.1602,-0.1603,0,-0.1802,-0.1806,-0.1809,-0.2022,-0.2023,-0.2025,-0.2027,-0.2283,-0.2288,-0.2293,0,0,0,0,0,0,0,0,0,0,0,0,0,0,0,0,0,0,0,0,0,0,0,0,0,0,0,0,0,0,0,0,0,0,0,0,0,0,0,0,0,0,0,0,0,0,0,0,0,0,0,0,0,0,0,0,0,0,0,0,0,0,0,0,0,0,0,0,0]}],[{"header":{"parameterUnit":"kt","parameterCategory":2,"dx":1,"dy":1,"la1":30.253999710083008,"la2":30.299108505249023,"lo1":-89.0895004272461,"lo2":-89.04439544677734,"nx":28,"ny":28,"refTime":"2022-09-20T21:00:00:Z","depth":"4","parameterNumber":3,"parameterNumberName":"V-component_of_CURRENTS"},"data":[-0.0833,-0.0906,-0.096,-0.1067,-0.1128,-0.126,-0.1282,-0.1266,-0.1096,-0.099,-0.0723,-0.0584,-0.0148,-0.0331,0.0281,0.0344,0.0355,0.0747,0.0754,0.0712,0.0695,0.0681,0.0544,0,0,0,0,0,-0.0843,-0.0886,-0.0984,-0.1093,-0.1208,-0.1259,-0.1325,-0.1369,-0.1331,-0.1052,-0.1036,-0.0653,-0.0197,-0.0061,0.0266,0.0172,0.047,0.0547,0.0503,0.0702,0.0683,0.0556,0,0,0,0,0,0,-0.0874,-0.0925,-0.099,-0.1073,-0.1195,-0.1265,-0.1347,-0.1274,-0.1302,-0.1156,-0.1029,-0.0707,-0.0531,-0.0126,0.0209,0.0506,0.0509,0.0559,0.055,0.0534,0.0417,0.0307,0.0652,0,0,0,0,0,-0.0861,-0.0902,-0.097,-0.1066,-0.1165,-0.1296,-0.1396,-0.1405,-0.1456,-0.1475,-0.1173,-0.0916,-0.0533,-0.0206,0.0176,0.0468,0.0407,0.0599,0.0588,0.0432,0.0355,0.0376,0.0343,0.0614,0.0612,0.0611,0.061,0,-0.0843,-0.0875,-0.0996,-0.1051,-0.1117,-0.1265,-0.1364,-0.1499,-0.1515,-0.1459,-0.1394,-0.1123,-0.0964,-0.0313,-0.0102,0.0335,0.0411,0.0553,0.0385,0.0323,0.0355,0.0324,0.0296,0.0595,0.0596,0.0597,0.0599,0,-0.0829,-0.0869,-0.0949,-0.1066,-0.1118,-0.1214,-0.1396,-0.1468,-0.153,-0.1518,-0.1502,-0.1368,-0.1021,-0.0743,-0.0324,-0.0161,0.0171,0.0333,0.0067,0.0106,0.0283,0.026,0.0571,0.0576,0.0581,0.0585,0.0588,0,-0.0819,-0.0877,-0.0953,-0.0991,-0.1113,-0.119,-0.1329,-0.1401,-0.1481,-0.1474,-0.1438,-0.1365,-0.1134,-0.0861,-0.0622,-0.022,-0.0222,0.0006,0.0071,-0.0183,-0.0202,-0.0092,-0.0103,-0.0012,-0.0014,-0.0016,-0.0018,0,-0.0796,-0.0878,-0.0942,-0.0971,-0.108,-0.1158,-0.1239,-0.1312,-0.1367,-0.1387,-0.1376,-0.1284,-0.1201,-0.0959,-0.0638,-0.0683,-0.0244,-0.0292,-0.0028,-0.0022,-0.0108,-0.0116,-0.002,-0.0021,-0.0021,-0.0022,-0.0023,0,-0.0796,-0.0831,-0.0903,-0.1011,-0.1035,-0.1097,-0.1212,-0.1267,-0.1298,-0.1307,-0.1289,-0.1219,-0.1138,-0.1065,-0.0768,-0.0841,-0.0634,-0.0486,-0.0472,-0.0318,-0.0293,-0.0345,-0.032,-0.0324,-0.0327,-0.033,-0.0333,0,-0.0765,-0.0821,-0.0857,-0.0935,-0.0964,-0.1,-0.1078,-0.11,-0.1109,-0.1141,-0.1102,-0.1106,-0.1047,-0.1056,-0.0954,-0.0788,-0.0673,-0.081,-0.0428,-0.0417,-0.0349,-0.0296,-0.0643,-0.0379,-0.0373,-0.0369,-0.0366,0,-0.0736,-0.0795,-0.0806,-0.0842,-0.0874,-0.0885,-0.0952,-0.0974,-0.1011,-0.0997,-0.103,-0.1033,-0.0993,-0.0985,-0.0961,-0.0863,-0.0739,-0.0754,-0.0744,-0.0655,-0.0438,-0.0361,-0.0327,-0.0662,-0.0658,-0.0655,-0.0397,0,-0.0726,-0.0769,-0.0782,-0.0821,-0.0833,-0.0841,-0.084,-0.0869,-0.0866,-0.0841,-0.0867,-0.0858,-0.086,-0.0874,-0.0845,-0.081,-0.0738,-0.0703,-0.0655,-0.0672,-0.056,-0.0536,-0.078,-0.0778,-0.0776,-0.0774,0,0,-0.0687,-0.0734,-0.0726,-0.0746,-0.0753,-0.071,-0.0733,-0.0728,-0.0708,-0.0715,-0.0705,-0.0712,-0.0712,-0.075,-0.0771,-0.0771,-0.0659,-0.0763,-0.0685,-0.0677,-0.0668,-0.0562,-0.0541,-0.077,-0.0769,-0.0768,-0.0768,0,-0.0678,-0.0706,-0.073,-0.0726,-0.0702,-0.0687,-0.0684,-0.065,-0.0648,-0.0671,-0.0638,-0.0653,-0.067,-0.0677,-0.0678,-0.0739,-0.063,-0.0739,-0.0797,-0.0672,-0.0667,-0.066,-0.0556,-0.0539,-0.0762,-0.0763,-0.0763,0,-0.065,-0.0651,-0.0665,-0.0667,-0.0647,-0.0656,-0.0593,-0.0574,-0.0588,-0.0537,-0.0578,-0.0563,-0.0544,-0.0592,-0.0607,-0.059,-0.0581,-0.0643,-0.0652,-0.0618,-0.0483,-0.0479,-0.0474,-0.0523,-0.0523,-0.0523,0,0,-0.0635,-0.0665,-0.0634,-0.0658,-0.0651,-0.0602,-0.0582,-0.0557,-0.0536,-0.0532,-0.0532,-0.0527,-0.0532,-0.055,-0.0546,-0.059,-0.0487,-0.062,-0.0631,-0.0641,-0.0614,-0.0482,-0.0478,-0.0522,-0.0522,-0.0522,0,0,-0.0613,-0.0606,-0.0608,-0.0635,-0.0609,-0.0553,-0.0548,-0.0514,-0.051,-0.0513,-0.0492,-0.0493,-0.0526,-0.0507,-0.0499,-0.056,-0.0504,-0.0505,-0.0608,-0.0621,-0.0631,-0.0602,-0.048,0,0,0,0,0,-0.058,-0.0609,-0.0611,-0.061,-0.0591,-0.0561,-0.0552,-0.0512,-0.0489,-0.0497,-0.049,-0.0478,-0.0501,-0.0494,-0.0496,-0.0553,-0.0513,-0.0515,-0.0516,-0.0654,-0.0668,-0.068,0,0,0,0,0,0,-0.0579,-0.0583,-0.0608,-0.0561,-0.0553,-0.056,-0.0526,-0.0516,-0.0489,-0.0486,-0.0478,-0.0478,-0.0473,-0.0493,-0.0494,-0.055,-0.0479,-0.0514,-0.0515,-0.0517,-0.0659,-0.0671,-0.0681,0,0,0,0,0,-0.0578,-0.058,-0.0578,-0.0557,-0.0551,-0.0497,-0.0527,-0.0518,-0.0505,-0.0483,-0.0482,-0.0475,-0.0473,-0.0474,-0.0494,-0.055,-0.0478,-0.0479,-0.0515,-0.0516,-0.0517,-0.0665,0,0,0,0,0,0,-0.0577,-0.057,-0.0574,-0.0567,-0.0556,-0.0495,-0.0493,-0.052,-0.0505,-0.05,-0.0481,-0.0479,-0.0473,-0.0474,-0.0475,-0.0553,-0.0477,-0.0478,-0.0478,-0.0516,-0.0517,-0.0517,0,0,0,0,0,0,-0.0567,-0.0566,-0.0571,-0.0573,-0.0566,-0.0494,-0.0492,-0.0499,-0.0508,-0.0506,-0.0502,-0.048,-0.0485,-0.0474,-0.0475,-0.0484,-0.0477,-0.0477,-0.0478,-0.0478,-0.0516,-0.0517,0,0,0,0,0,0,-0.0564,-0.0564,-0.0575,-0.057,-0.0564,-0.0492,-0.05,-0.0498,-0.0467,-0.051,-0.0466,-0.0466,-0.0486,-0.0486,-0.0475,-0.0484,-0.0484,-0.0477,-0.0477,-0.0477,-0.0478,0,0,0,0,0,0,0,-0.0562,-0.0596,-0.0605,-0.0567,-0.0563,-0.0503,-0.0502,-0.0501,-0.0467,-0.0467,-0.0466,-0.0466,-0.0474,-0.0475,-0.0475,-0.0483,0,0,-0.0477,-0.0477,0,0,0,0,0,0,0,0,-0.0593,-0.0595,-0.0605,-0.0603,-0.0601,-0.0503,-0.0502,-0.0501,-0.0467,-0.0467,-0.0466,-0.0466,-0.0474,-0.0475,-0.0475,0,0,0,0,0,0,0,0,0,0,0,0,0,0,0,-0.0605,-0.0603,0,-0.0503,-0.0502,-0.0501,-0.0467,-0.0467,-0.0466,-0.0466,-0.0474,-0.0475,-0.0475,0,0,0,0,0,0,0,0,0,0,0,0,0,0,0,0,0,0,0,0,0,0,0,0,0,0,0,0,0,0,0,0,0,0,0,0,0,0,0,0,0,0,0,0,0,0,0,0,0,0,0,0,0,0,0,0,0,0,0,0,0,0,0,0,0,0,0,0,0]}]]]